TimePDT,TemperatureF,Dew PointF,Humidity,Sea Level PressureIn,VisibilityMPH,Wind Direction,Wind SpeedMPH,Gust SpeedMPH,PrecipitationIn,Events,Conditions,WindDirDegrees,DateUTC
12:53 AM,77.0,39.9,26,29.96,10.0,North,6.9,-,N/A,,Clear,350,2013-07-26 07:53:00
1:53 AM,77.0,37.9,24,29.96,10.0,NNW,12.7,19.6,N/A,,Clear,330,2013-07-26 08:53:00
2:53 AM,75.0,35.1,23,29.97,10.0,NNW,10.4,17.3,N/A,,Mostly Cloudy,330,2013-07-26 09:53:00
3:53 AM,73.0,34.0,24,29.98,10.0,NW,6.9,-,N/A,,Mostly Cloudy,320,2013-07-26 10:53:00
4:53 AM,68.0,36.0,31,29.99,10.0,NW,4.6,-,N/A,,Clear,310,2013-07-26 11:53:00
5:53 AM,64.9,36.0,34,30.00,10.0,Calm,Calm,-,N/A,,Clear,0,2013-07-26 12:53:00
6:53 AM,64.0,42.1,45,30.03,10.0,Variable,5.8,-,N/A,,Clear,0,2013-07-26 13:53:00
7:53 AM,69.1,42.1,38,30.03,10.0,WSW,6.9,-,N/A,,Clear,250,2013-07-26 14:53:00
8:53 AM,77.0,36.0,23,30.03,10.0,Calm,Calm,-,N/A,,Clear,0,2013-07-26 15:53:00
9:53 AM,84.9,32.0,15,30.01,10.0,Calm,Calm,-,N/A,,Clear,0,2013-07-26 16:53:00
10:53 AM,90.0,30.9,12,29.99,10.0,Calm,Calm,-,N/A,,Clear,0,2013-07-26 17:53:00
11:53 AM,95.0,30.0,10,29.98,10.0,NNE,3.5,-,N/A,,Clear,20,2013-07-26 18:53:00
12:53 PM,93.9,43.0,17,29.97,10.0,SSE,5.8,-,N/A,,Clear,150,2013-07-26 19:53:00
1:53 PM,96.1,33.1,11,29.95,10.0,South,4.6,-,N/A,,Clear,190,2013-07-26 20:53:00
2:53 PM,99.0,28.0,8,29.94,10.0,Variable,5.8,-,N/A,,Clear,0,2013-07-26 21:53:00
3:53 PM,99.0,27.0,8,29.91,10.0,Calm,Calm,-,N/A,,Clear,0,2013-07-26 22:53:00
4:53 PM,100.0,30.9,9,29.90,10.0,Calm,Calm,-,N/A,,Clear,0,2013-07-26 23:53:00
5:53 PM,100.0,37.0,11,29.89,10.0,North,10.4,-,N/A,,Clear,360,2013-07-27 00:53:00
6:53 PM,95.0,39.0,14,29.90,10.0,NNW,12.7,-,N/A,,Clear,330,2013-07-27 01:53:00
7:53 PM,91.0,42.1,18,29.92,10.0,NNW,15.0,19.6,N/A,,Clear,330,2013-07-27 02:53:00
8:53 PM,84.9,43.0,23,29.93,10.0,NNW,12.7,-,N/A,,Clear,330,2013-07-27 03:53:00
9:53 PM,80.1,44.1,28,29.96,10.0,North,6.9,-,N/A,,Clear,350,2013-07-27 04:53:00
10:53 PM,79.0,46.0,31,29.96,10.0,NNW,13.8,-,N/A,,Clear,340,2013-07-27 05:53:00
11:53 PM,75.9,46.9,36,29.97,10.0,NNW,12.7,-,N/A,,Clear,340,2013-07-27 06:53:00